This is the latest recevied weather packets stored in our database for station/object DH6PF-10. If no packets are shown the sender has not sent any weather packets the latest 10 day(s).
| Time | Temp. | Humidity | Pressure | Rain* | Wind** | Luminosity | Snow |
|---|---|---|---|---|---|---|---|
| 1787592710 | 20.56° C | 52% | 1018.7 hPa | - | - | - | - |
| 1787592110 | 20.56° C | 52% | 1018.8 hPa | - | - | - | - |
| 1787591510 | 20.56° C | 50% | 1018.9 hPa | - | - | - | - |
| 1787590910 | 20.56° C | 49% | 1019 hPa | - | - | - | - |
| 1787590310 | 20.56° C | 49% | 1019 hPa | - | - | - | - |
| 1787589710 | 21.11° C | 47% | 1019.1 hPa | - | - | - | - |
| 1787589110 | 21.11° C | 47% | 1019.5 hPa | - | - | - | - |
| 1787588510 | 21.11° C | 46% | 1019.5 hPa | - | - | - | - |
| 1787587910 | 21.11° C | 45% | 1019.5 hPa | - | - | - | - |
| 1787587310 | 21.11° C | 45% | 1019.6 hPa | - | - | - | - |
| 1787586710 | 21.11° C | 47% | 1019.8 hPa | - | - | - | - |
| 1787586110 | 21.11° C | 46% | 1019.8 hPa | - | - | - | - |
| 1787585510 | 21.11° C | 45% | 1020.1 hPa | - | - | - | - |
| 1787584910 | 21.11° C | 45% | 1019.9 hPa | - | - | - | - |
| 1787584310 | 21.67° C | 46% | 1020.1 hPa | - | - | - | - |
| 1787583710 | 21.11° C | 44% | 1020.3 hPa | - | - | - | - |
| 1787583110 | 21.11° C | 45% | 1020.2 hPa | - | - | - | - |
| 1787582510 | 21.67° C | 45% | 1020.7 hPa | - | - | - | - |
| 1787581910 | 21.67° C | 44% | 1020.7 hPa | - | - | - | - |
| 1787581310 | 21.67° C | 44% | 1021.1 hPa | - | - | - | - |
| 1787580710 | 22.22° C | 42% | 1021.3 hPa | - | - | - | - |
| 1787580110 | 21.11° C | 44% | 1021.1 hPa | - | - | - | - |
| 1787579510 | 21.11° C | 45% | 1021.3 hPa | - | - | - | - |
| 1787578910 | 21.67° C | 44% | 1021.5 hPa | - | - | - | - |
| 1787578310 | 22.22° C | 45% | 1021.4 hPa | - | - | - | - |
* Rain since midnight (hover to see other rain measurements)
** Current wind speed in m/s (hover to see current wind gust speed)